TimeCST,TemperatureF,Dew PointF,Humidity,Sea Level PressureIn,VisibilityMPH,Wind Direction,Wind SpeedMPH,Gust SpeedMPH,PrecipitationIn,Events,Conditions,WindDirDegrees,DateUTC
12:54 AM,37.9,12.9,36,30.08,10.0,South,13.8,-,N/A,,Clear,190,2012-12-13 06:54:00
1:54 AM,37.0,12.9,37,30.08,10.0,South,13.8,-,N/A,,Clear,190,2012-12-13 07:54:00
2:54 AM,37.9,12.9,36,30.07,10.0,South,17.3,-,N/A,,Clear,190,2012-12-13 08:54:00
3:54 AM,37.9,12.9,36,30.06,10.0,South,16.1,-,N/A,,Partly Cloudy,180,2012-12-13 09:54:00
4:54 AM,37.0,14.0,39,30.05,10.0,South,11.5,-,N/A,,Partly Cloudy,180,2012-12-13 10:54:00
5:54 AM,37.4,15.8,41,30.03,10.0,South,13.8,-,N/A,,Partly Cloudy,190,2012-12-13 11:54:00
6:54 AM,36.0,15.1,43,30.05,10.0,South,15.0,24.2,N/A,,Mostly Cloudy,190,2012-12-13 12:54:00
7:54 AM,35.1,16.0,46,30.06,10.0,South,11.5,-,N/A,,Mostly Cloudy,180,2012-12-13 13:54:00
8:54 AM,36.0,17.1,46,30.07,10.0,SSW,9.2,-,N/A,,Mostly Cloudy,200,2012-12-13 14:54:00
9:54 AM,42.1,18.0,38,30.08,10.0,SW,17.3,25.3,N/A,,Scattered Clouds,220,2012-12-13 15:54:00
10:54 AM,46.0,19.0,34,30.06,10.0,SW,13.8,-,N/A,,Scattered Clouds,230,2012-12-13 16:54:00
11:54 AM,48.0,19.9,33,30.06,10.0,SW,15.0,-,N/A,,Scattered Clouds,220,2012-12-13 17:54:00
12:54 PM,48.2,17.6,30,30.03,10.0,SW,12.7,-,N/A,,Scattered Clouds,230,2012-12-13 18:54:00
1:54 PM,52.0,21.0,30,30.02,10.0,SSW,12.7,-,N/A,,Partly Cloudy,200,2012-12-13 19:54:00
2:54 PM,52.0,21.9,31,30.03,10.0,SW,11.5,-,N/A,,Mostly Cloudy,220,2012-12-13 20:54:00
3:54 PM,50.0,21.9,33,30.05,10.0,SW,9.2,-,N/A,,Overcast,220,2012-12-13 21:54:00
5:54 PM,42.8,21.2,42,30.07,10.0,South,5.8,-,N/A,,Scattered Clouds,190,2012-12-13 23:54:00
6:54 PM,41.0,21.2,45,30.07,10.0,South,5.8,-,N/A,,Mostly Cloudy,180,2012-12-14 00:54:00
7:54 PM,39.0,21.0,49,30.08,10.0,SSW,5.8,-,N/A,,Mostly Cloudy,200,2012-12-14 01:54:00
8:54 PM,37.9,21.0,51,30.08,10.0,SSW,6.9,-,N/A,,Partly Cloudy,200,2012-12-14 02:54:00
9:54 PM,39.0,21.0,49,30.09,10.0,SSW,4.6,-,N/A,,Partly Cloudy,210,2012-12-14 03:54:00
10:54 PM,35.1,21.0,57,30.09,10.0,Calm,Calm,-,N/A,,Clear,0,2012-12-14 04:54:00
11:54 PM,30.9,21.0,67,30.10,10.0,Calm,Calm,-,N/A,,Clear,0,2012-12-14 05:54:00